STARLINK-32837, 62812

Orbit data source: Space-Track

STARLINK-32837, 62812 is a payload satellite owned by SpaceX/Seattle (US) in LEO that was launched on Fri, 24 Jan 2025 UTC via an FALCON 9 launch vehicle from the Air Force Western Test Range (AFWTR). Payload-class satellites include a variety of spacecraft equipped with specific instruments for various scientific and technological missions. These include communications satellites like Starlink; space stations such as the ISS; scientific satellites like the Hubble; Earth observation satellites from companies like Planet Labs, Umbra, and HawkEye 360; GPS; miniature CubeSats for education and research; and military/defense satellites.

Loading next visibility...
Identifier
62812, 2025-018G
Orbit
LEO
Country
Flag of USUS
Related business
Manufacturer
SpaceX/Seattle
Mission
Operational Commercial Communications
Bus & Motor
STARLINK V2M, Unknown motor
Mass
730 kg wet, ~700 kg dry
Launch date (UTC)
2025-01-24 (8 months ago)
Launch vehicle
FALCON 9
Launch site
Air Force Western Test Range (AFWTR)
Object type
Payload
Rocket body
Debris
Shape & HBR
Box + 2 Pan, 14.5 m
Radar Cross Section
33.884 m², Large (>1 m²)

Expand to show TLE details & history
Last TLE update: 20 hours ago

TLE from 20 hours ago
0 STARLINK-32837
1 62812U 25018G   25260.62571455  .00012680  00000-0  43980-3 0  9999
2 62812  53.1623  33.3208 0001184 111.9729 248.1397 15.30177355 36688
Epoch: 2025-09-17T15:01Z
TLE epoch observation values (Epoch: 2025-09-17T15:01:01.737Z)
Latitude
-0.00006°
Longitude
171.26455°
Altitude
476.485 km
Speed
7.629 km/s
True Right ascension
02h 13m 16s
True Declination
0° 00' 00"
Sunlit
Object was in full shadow at epoch
Visualization orbit readout
Latitude
Unknown
Longitude
Unknown
Altitude
Unknown
Speed
Unknown
Apparent Right ascension
Unknown
Apparent Declination
Unknown
Sunlit
N/A
Visualization observer readout
Local Sidereal Time
04:15:43
Azimuth
Unknown
Elevation
Unknown
Doppler factor
Unknown
Orbital elements
Apogee altitude
476.35 km
Perigee altitude
474.727 km
Semi-major axis
6,853.676 km
Eccentricity
0.00012
Inclination
53.1623°
RAAN
33.3208°
Arg. of periapsis
111.9729°
True anomaly
248.12711°
Mean anomaly
248.1397°
Eccentric anomaly
248.1334°
Mean motion
3.82523 °/min
Orbital period
94.11 mins
BSTAR
0.0004398
Loading maneuver chart data...
Computing Atmospheric mass density...
Loading historical data...
Loading historical data...
Loading historical data...
Loading historical data...
Loading historical data...
Loading historical data...
Loading historical data...

Documentation

Showing up to 5 results
|